Location: *
(51.4660°N, 0.3360°W)
Time: 13:56:57
(UTC+00:00)

Spot 2 Rocket - Pass Details

Date: 19 September 2019
Orbit: 758 x 772 km, 98.6° (Epoch: 22 October)

Event Time Altitude Azimuth Distance (km) Brightness Sun altitude
Exits shadow 21:26:11 38° 241° (WSW) 1,160 4.4 -28.5°
Maximum altitude 21:26:56 40° 262° (W) 1,116 4.5 -28.6°
Drops below altitude 10° 21:31:41 10° 332° (NNW) 2,300 6.8 -29.1°
Sets 21:34:08 0° 340° (NNW) 3,230 7.7 -29.4°
